Retour au catalogue

STARLINK-33946

ActifCommunicationsVLEO
NORAD 64034·PAYLOAD·🇺🇸 United States

Lancé May 16, 2025 depuis Vandenberg Space Force Base

Loading…

Prochains Passages (prochaines 24 heures)

TLE

FraisSource: CelesTrak SupGP

Époque: Sep 15, 2026, 02:28 UTC

1 64034C 25102N   26258.10326389  .00084399  00000+0  29368-2 0  2582
2 64034  70.0011 355.4754 0003368 267.8620 309.5038 15.29526679    13

Suivez STARLINK-33946 en temps réel avec AllMySat

Download on the App Store